Location: Unspecified
(0.0000°N, 0.0000°E)
Time: 13:11:51
(UTC+00:00)

ISS - Pass Details

Date: 17 November 2017
Orbit: 402 x 407 km, 51.6° (Epoch: 23 November)

Event Time Altitude Azimuth Distance (km) Brightness Sun altitude
Rises 18:35:48 0° 180° (S) 2,324 0.3 -12.0°
Reaches altitude 10° 18:39:58 10° 128° (SE) 1,459 -1.3 -12.9°
Maximum altitude 18:40:05 10° 127° (SE) 1,458 -1.3 -13.0°
Enters shadow 18:40:13 10° 124° (SE) 1,459 -1.4 -13.0°
